Regional Weather Roundup
Issued by NWS Mt. Holly, NJ

Home | Current Version | Previous Version | Text Only | Print | Product List | Glossary On
Versions: 1 2 3 4 5 6 7 8 9 10 11 12 13 14 15 16 17 18 19 20 21 22 23 24 25 26 27 28 29 30 31 32 33 34 35 36 37 38 39 40 41 42 43 44 45 46 47 48 49 50
000
ASUS41 KPHI 310111
RWRPHI

REGIONAL WEATHER ROUNDUP
NATIONAL WEATHER SERVICE MOUNT HOLLY NJ
900 PM EDT THU MAR 30 2017

NOTE:  "FAIR" INDICATES FEW OR NO CLOUDS BELOW 12,000 FEET WITH NO
SIGNIFICANT WEATHER AND/OR OBSTRUCTIONS TO VISIBILITY.

 * = STATION DOES NOT REPORT PRECIPITATION (E.G. RAIN, SNOW, ETC.)
        OR FOG.

NJZ015>026-310200-
SOUTHERN NEW JERSEY

CITY           SKY/WX    TMP DP  RH WIND       PRES   REMARKS
POMONA         CLOUDY    44  32  62 SE9       30.15F
WILDWOOD*      CLOUDY    43  35  73 SE14      30.14F
MILLVILLE      CLOUDY    43  34  70 SE8       30.13F
WRIGHTSTOWN    CLOUDY    42  31  65 S6        30.13F
MOUNT HOLLY    CLOUDY    43  30  60 SE3       30.15S
TRENTON        CLOUDY    43  32  65 S9        30.14R

$$
NJZ001>014-310200-
NORTHERN NEW JERSEY

CITY           SKY/WX    TMP DP  RH WIND       PRES   REMARKS
SUSSEX         CLOUDY    45  28  51 CALM      30.12S
ANDOVER*         N/A     43  32  65 CALM      30.10F
MORRISTOWN     CLOUDY    45  30  57 S8        30.13S
NEWARK         CLOUDY    45  29  53 S7        30.14S
TETERBORO      CLOUDY    45  30  55 S9        30.14R
CALDWELL       CLOUDY    46  30  53 S8        30.13F
SOMERVILLE     CLOUDY    45  31  58 SE8       30.12R
ALLAIRE*       LGT RAIN  42  30  62 S5        30.17F
TOMS RIVER*    CLOUDY    42  32  67 S6        30.17F

$$
PAZ043-044-047-054-055-060>062-066>071-310200-
EASTERN PENNSYLVANIA

CITY           SKY/WX    TMP DP  RH WIND       PRES   REMARKS
PHILADELPHIA   CLOUDY    46  32  58 SE7       30.13F
NORTH PHILA    LGT RAIN  46  33  60 VRB5      30.15S
BLUE BELL*     CLOUDY    43  32  65 CALM      30.11S
DOYLESTOWN     CLOUDY    44  33  65 SE3       30.11F
QUAKERTOWN*    CLOUDY    45  28  53 SE5       30.12R
PERKASIE*      CLOUDY    41  32  70 CALM      30.12R
POTTSTOWN      CLOUDY    44  30  57 CALM      30.12S
LANCASTER      CLOUDY    45  36  70 E8        30.08S
COATESVILLE    CLOUDY    43  32  65 VRB5G14   30.11R
READING        LGT RAIN  46  32  58 SE5       30.11R
ALLENTOWN      CLOUDY    47  24  40 SE6       30.10F
MOUNT POCONO   LGT RAIN  36  28  73 SE6       30.05F WCI  31
HAZLETON       CLOUDY    37  30  75 SE8       30.08R WCI  31
LEHIGHTON      CLOUDY    43  30  61 CALM      30.11R
WILKES BARRE   CLOUDY    44  27  51 CALM      30.07S

$$
DEZALL-MDZ008-012-015-019-020-310200-
DELAWARE AND EASTERN MARYLAND

CITY           SKY/WX    TMP DP  RH WIND       PRES   REMARKS
WILMINGTON     CLOUDY    44  35  70 SE12      30.12F
DOVER          CLOUDY    44  38  81 SE14      30.11F
GEORGETOWN     CLOUDY    45  34  65 SE9       30.13F
EASTON         MOCLDY    48  36  61 SE10G17   30.13F
ABERDEEN       CLOUDY    46  34  65 SE9       30.11S
PATUXENT       CLOUDY    47  40  76 SE9       30.12R
OCEAN CITY     CLOUDY    44  36  73 SE10      30.14S
WALLOPS ISLAND CLOUDY    46  38  73 E13       30.12F
CAMBRIDGE      CLOUDY    46  36  66 SE10      30.11R
SALISBURY      CLOUDY    45  35  68 E12       30.12F

$$
PAZ001-021-NYZ056-072-MDZ011-DCZ001-310200-
OTHER NEARBY LOCATIONS

CITY           SKY/WX    TMP DP  RH WIND       PRES   REMARKS
HARRISBURG     CLOUDY    45  34  65 SE13      30.06F
STATE COLLEGE  PTCLDY    39  32  75 SE8       29.98F WCI  34
WILLIAMSPORT   CLOUDY    41  34  76 E12       30.03F
BINGHAMTON     CLOUDY    35  34  96 CALM      30.06R
NEW YORK CITY  CLOUDY    45  29  53 S6        30.16R
BALTIMORE      CLOUDY    49  40  71 E8        30.08R
WASHINGTON DC  CLOUDY    51  40  65 S12       30.09R

$$



USA.gov is the U.S. government's official web portal to all federal, state and local government web resources and services.